Location: ????????
(55.3155°N, 39.2900°E)
Time: 15:19:52
(UTC+00:00)

ACS3 Solar Sail - Visible Passes

Search period start: 14 November 2025 00:00
Search period end: 24 November 2025 00:00
Orbit: 909 x 993 km, 97.3° (Epoch: 13 November)

Date Brightness Start Highest point End Pass type
(mag) Time Alt. Az. Time Alt. Az. Time Alt. Az.
14 Nov 2.9 00:18:05 10° NNE 00:22:24 39° ENE 00:22:24 39° ENE visible
14 Nov 2.1 02:01:12 10° N 02:06:32 43° NW 02:06:32 43° NW visible
14 Nov 3.4 03:45:50 10° NNW 03:48:25 13° NW 03:50:38 11° WNW visible
14 Nov 4.4 22:54:24 10° NE 22:55:51 13° ENE 22:55:51 13° ENE visible
15 Nov 2.6 00:35:33 10° NNE 00:39:57 46° NE 00:39:57 46° NE visible
15 Nov 2.4 02:18:53 10° N 02:24:04 35° WNW 02:24:04 35° WNW visible
15 Nov 3.5 04:04:25 10° NNW 04:05:33 11° NW 04:06:42 10° NW visible
15 Nov 4.2 23:11:03 10° NE 23:13:18 16° ENE 23:13:18 16° ENE visible
16 Nov 2.3 00:52:57 10° NNE 00:57:23 51° NNE 00:57:23 51° NNE visible
16 Nov 2.6 02:36:29 10° N 02:41:27 28° NW 02:41:30 28° WNW visible
16 Nov 3.9 23:27:56 10° NNE 23:30:38 20° ENE 23:30:38 20° ENE visible
17 Nov 2.2 01:10:17 10° NNE 01:14:44 52° N 01:14:44 52° N visible
17 Nov 2.8 02:54:02 10° N 02:58:32 23° NW 02:58:49 23° NW visible
17 Nov 3.7 23:44:53 10° NNE 23:47:53 24° NE 23:47:53 24° NE visible
18 Nov 2.2 01:27:33 10° N 01:31:58 48° NNW 01:31:58 48° NNW visible
18 Nov 3.1 03:11:32 10° N 03:15:29 19° NW 03:16:03 18° NW visible
19 Nov 3.5 00:01:49 10° NNE 00:05:02 28° NE 00:05:02 28° NE visible
19 Nov 2.3 01:44:45 10° N 01:49:06 42° NNW 01:49:06 42° NNW visible
19 Nov 3.2 03:29:00 10° N 03:32:16 15° NW 03:33:11 15° NW visible
20 Nov 3.2 00:18:43 10° NNE 00:22:04 32° NE 00:22:04 32° NE visible
20 Nov 2.5 02:01:52 10° N 02:06:08 36° NNW 02:06:08 36° NNW visible
20 Nov 3.4 03:46:35 10° NNW 03:48:55 12° NW 03:50:12 12° NW visible
20 Nov 4.5 13:54:49 10° W 13:57:12 12° WNW 13:59:35 10° NW visible
20 Nov 4.5 22:54:11 10° NE 22:54:56 12° NE 22:54:56 12° NE visible
21 Nov 3.0 00:35:34 10° NNE 00:39:00 35° NNE 00:39:00 35° NNE visible
21 Nov 2.6 02:18:54 10° N 02:23:04 31° NW 02:23:04 31° NW visible
21 Nov 3.6 04:04:55 10° NNW 04:05:25 10° NW 04:05:57 10° NW visible
21 Nov 4.3 23:10:22 10° NE 23:11:46 14° NE 23:11:46 14° NE visible
22 Nov 2.9 00:52:21 10° NNE 00:55:50 37° NNE 00:55:50 37° NNE visible
22 Nov 2.8 02:35:53 10° N 02:39:53 26° NW 02:39:53 26° NW visible
22 Nov 4.1 23:26:41 10° NNE 23:28:31 17° NE 23:28:31 17° NE visible
23 Nov 2.8 01:09:05 10° NNE 01:12:34 37° N 01:12:34 37° N visible
23 Nov 3.0 02:52:48 10° N 02:56:37 22° NW 02:56:37 22° NW visible
23 Nov 3.9 23:43:02 10° NNE 23:45:08 20° NE 23:45:08 20° NE visible
